Main page
METAR-TAF:

METAR-TAF

Airports :

Red Oak Municipal Airport

Red Oak, Iowa, United States

latitude: 41-01N, longitude: 095-16W, elevation: 1043 ft

Current weather observation

The report was made 38 minutes ago, at 22:15 UTC
Wind 9 mph from the Northeast with gusts up to 16 mph
Temperature 72°F
Humidity 83%
Pressure 30.23 in. Hg
Visibility: 10 miles
Overcast at a height of 1900 ft

METAR: KRDK 192215Z AUTO 04008G14KT 10SM OVC019 22/19 A3023 RMK AO2

Time: 17:53 (22:53 UTC)


TAF: missing

Weather observations and forecasts of more than 4000 airports (METAR and TAF reports).

The available stations are represented by yellow and red dots on the map.

Hover mouse over dot to see the name of the station.

Then click to see weather observations and forecasts.

To change the map : click on the green buttons with a black cross to zoom in, on the green button with a dash to zoom out, or on the green arrows for adjacent maps.


METAR-TAF: